TITAN 3C TRANSTAGE DEB, 1716

Orbit data source: Space-Track

TITAN 3C TRANSTAGE DEB, 1716 is space debris in LEO originally from a launch on Fri, 15 Oct 1965 UTC launched from the Air Force Eastern Test Range (AFETR). Debris objects in space refer to the collection of defunct objects orbiting the Earth. Examples of debris include non-operational satellites, rocket bodies, and fragments generated from explosions, collisions, or faulty payload assembly.

Loading next visibility...
Identifier
1716, 1965-082BX
Orbit
LEO
Last TLE update
21 hours ago
Origin
Manufacturer
Unknown
Mission
Spacecraft
Bus & Motor
Unknown
Mass
Unknown
Launch date (UTC)
1965-10-15 (60 years ago)
Launch vehicle
Unknown
Launch site
Air Force Eastern Test Range (AFETR)
Object type
Payload
Rocket body
Debris
Shape & HBR
Unknown
Radar Cross Section
1.900 m², Large (>1 m²)

Expand to show TLE details & history

TLE from 21 hours ago
0 TITAN 3C TRANSTAGE DEB
1 01716U 65082BX  25133.44033170  .00000725  00000-0  14960-3 0  9999
2 01716  32.1885 131.8544 0038442 346.4456  13.5155 14.56982897150143
Epoch: 2025-05-13T10:34Z
Definitive object data (Epoch: 2025-05-13T10:34:04.658Z)
Latitude
-0.00001°
Longitude
101.89594°
Altitude
675.137 km
Speed
7.536 km/s
True Right ascension
08h 47m 25s
True Declination
0° 00' 00"
Sunlit
Object was in daylight at TLE epoch
Visualization TLE readout
Latitude
2.06692°
Longitude
99.94134°
Altitude
674.501 km
Speed
7.536 km/s
Apparent Right ascension
06h 58m 23s
Apparent Declination
-20° 27' 27"
Sunlit
Object is in daylight
Visualization observer readout
Local Sidereal Time
16:26:36
Azimuth
289.677° WNW
Elevation
-52.275°
Doppler factor
1
Orbital elements
Apogee altitude
733.745 km
Perigee altitude
679.276 km
Semi-major axis
7,084.648 km
Eccentricity
0.0038442
Inclination
32.1885°
RAAN
131.8544°
Arg. of periapsis
346.4456°
True anomaly
13.61893°
Mean anomaly
13.5155°
Eccentric anomaly
13.56717°
Mean motion
3.6397 °/min
BSTAR
0.0001496
Orbital period
98.91 mins
Loading maneuver chart data...
Loading SW <> Apogee altitude chart data...

TITAN 3C TRANSTAGE DEB Visibility forecast

Observer location: undefined°, undefined°

Span
Click to sort rows by Start time (UTC) header in descending order
Start Az.
Max El. time (UTC)
Max El. Az.
Max El.
End time (UTC)
End Az.
6 mins2025-05-14 08:25:48.360Z243.55° WSW2025-05-14 08:28:48.360Z206.712° SW17.996°2025-05-14 08:31:48.360Z165.285° S
6 mins2025-05-15 03:57:48.360Z209.292° SW2025-05-15 04:00:48.360Z157.494° SSE23.772°2025-05-15 04:03:48.360Z115.552° SE
7 mins2025-05-15 05:41:48.360Z232.848° WSW2025-05-15 05:44:48.360Z175.723° S29.046°2025-05-15 05:48:48.360Z119.418° SE
7 mins2025-05-15 07:25:48.360Z240.154° WSW2025-05-15 07:28:48.360Z195.802° SSW22.059°2025-05-15 07:32:48.360Z143.817° SSE
|